Dewpoint
20 19 20 19 19 18 18 18 18 17 17 17 17 15 14 15 14 13 13 14 12 14 12 12 13 12 12 14 14 15 14 14 14 13 14 14 14 14 14 14 13 13 13 12 13 12 12 11 11 11 11 10 10 10 10 10 11 11 11 10 10 11 11 10 9 9 10 12 12 12 12 11 11 10 12 12 9 5 10 5 3 0 0 2 4
19 19 18 18 18 17 16 15 14 14 14 14 15 13 13 13 13 13 14 15 16 15 15 14 13 12 12 14 16 16 15 15 15 15 14 14 14 14 14 13 13 12 12 11 11 12 11 10 10 10 10 10 10 9 9 9 9 9 9 9 9 9 11 10 9 9 8 9 10 10 10 9 9 9 8 8 8 9 8 8 7 6 4 4 6
17 17 16 16 15 14 14 13 13 13 12 12 12 11 11 12 13 13 14 14 14 15 15 15 14 13 13 14 15 15 15 15 15 15 15 14 14 13 14 13 12 12 11 11 11 11 11 10 10 10 10 9 9 9 9 9 9 9 8 9 8 8 9 10 9 8 7 7 9 8 9 9 9 8 7 7 8 8 8 8 8 8 8 6 6
15 14 14 13 12 12 11 11 11 11 11 12 11 12 12 12 13 12 13 13 14 14 14 14 14 14 14 15 15 15 14 14 14 14 14 14 13 13 13 13 12 12 11 11 11 10 10 10 9 10 9 9 9 9 9 9 9 9 8 8 8 8 8 9 9 8 8 6 7 8 9 7 7 7 6 6 7 8 8 8 9 10 8 7 8
12 11 11 10 9 9 9 9 9 11 11 12 12 12 12 11 10 10 11 13 13 13 14 14 14 15 15 15 14 13 13 13 12 12 12 13 12 12 12 11 11 11 11 11 11 11 10 10 9 9 9 9 8 8 8 8 9 9 8 8 8 8 8 8 8 8 7 6 6 7 7 7 7 6 6 5 5 6 7 8 9 9 8 9 10
10 9 8 8 8 8 8 8 8 10 11 10 10 9 8 7 8 10 11 12 13 14 14 15 15 15 15 15 14 13 13 13 12 12 12 12 11 11 11 11 11 11 11 11 11 11 10 10 10 10 9 9 8 8 8 8 8 8 8 8 8 8 8 8 8 8 7 7 6 6 7 6 5 5 5 5 5 5 6 7 8 6 6 7 9
8 7 7 8 8 8 8 7 7 7 8 9 9 10 10 11 11 11 12 12 13 13 14 14 14 15 15 14 14 13 13 13 12 12 11 11 11 11 11 11 11 11 11 11 11 11 11 10 10 10 9 9 9 8 8 8 8 7 8 7 7 7 7 7 7 7 6 6 5 5 5 5 4 3 4 4 5 6 5 6 7 7 7 6 6
7 7 6 6 7 8 9 9 9 10 10 10 10 10 10 10 11 11 11 11 12 12 13 13 14 14 14 14 14 13 12 11 11 11 11 12 12 11 11 11 11 11 11 11 11 11 11 11 11 10 10 10 10 9 9 9 8 8 8 7 7 7 6 5 5 5 5 4 3 3 3 3 3 3 4 5 5 6 8 5 3 4 5 5 4
7 7 6 6 6 7 8 9 9 9 9 9 9 9 10 10 11 11 11 11 11 12 13 13 12 12 12 12 12 11 11 10 11 11 12 12 13 13 13 11 8 7 7 8 9 9 10 10 11 11 11 12 12 12 12 11 9 7 7 8 7 6 6 5 5 4 3 3 2 3 3 3 2 3 3 3 6 4 5 6 4 4 3 3 4
5 5 5 5 5 6 7 7 7 7 7 7 8 9 9 10 10 10 10 11 11 12 12 12 12 12 10 11 11 11 10 10 11 12 12 12 12 9 7 7 7 6 6 6 7 8 9 9 11 10 10 10 10 11 12 13 13 12 10 9 8 7 6 5 4 3 3 1 0 1 1 0 1 2 3 5 5 5 4 4 2 2 1 1 3
3 3 2 3 3 3 4 4 6 5 6 6 7 8 9 9 9 9 9 9 10 11 10 10 10 10 10 10 10 10 9 10 11 11 12 14 7 6 5 5 6 5 5 5 5 7 7 7 6 6 7 8 9 9 10 10 11 12 12 11 9 8 6 4 4 4 2 1 1 1 1 0 1 3 3 4 4 3 3 3 3 2 -0 -1 -2
2 1 1 1 1 2 2 3 4 4 5 5 6 6 7 7 7 7 8 8 9 9 9 9 9 10 9 8 8 8 8 11 10 10 12 15 7 3 3 3 4 4 4 5 5 3 2 3 3 4 4 5 6 7 8 10 10 11 11 10 10 9 9 8 6 4 4 3 2 1 0 0 1 2 3 3 3 2 3 3 2 1 -0 -0 -1
-0 0 0 0 0 1 2 2 3 3 4 4 5 5 5 5 5 6 7 8 8 7 8 8 9 6 7 6 7 7 8 9 9 9 11 14 11 2 1 1 2 2 2 2 -0 -0 -0 1 1 2 3 4 4 5 7 7 8 8 9 10 9 9 8 8 9 8 7 5 3 3 2 1 -0 1 2 2 3 1 2 0 1 1 1 0 -0
-1 0 -0 0 0 1 1 2 2 2 3 3 4 3 3 3 4 6 6 6 6 6 6 6 6 6 6 6 7 7 8 7 7 8 8 12 9 2 -1 -2 -1 -1 -1 -2 -3 -2 -2 -2 -1 -0 0 0 2 5 5 5 5 4 5 6 4 4 6 7 7 8 8 6 5 3 4 4 2 3 4 5 3 2 1 -0 1 -0 -0 -0 1
-2 -1 -1 -0 -0 0 0 1 1 1 2 2 2 2 2 3 3 4 4 5 5 5 6 5 5 5 6 6 7 6 5 5 5 5 7 11 6 -1 -3 -5 -4 -4 -3 -3 -4 -3 -3 -3 -3 -2 -2 -1 3 3 2 3 2 2 2 3 4 2 1 1 1 2 4 3 3 3 5 6 5 4 4 5 4 3 3 2 2 1 1 1 1
-2 -2 -2 -1 -1 -0 -0 -0 0 0 0 1 1 0 1 2 2 3 3 4 3 5 4 4 5 4 5 4 5 2 0 3 3 5 6 10 -0 -4 -4 -6 -6 -6 -6 -6 -6 -5 -5 -4 -3 -3 -3 -1 2 2 2 1 -0 -1 -1 -0 0 -0 -1 4 7 8 8 7 6 5 5 4 9 6 6 5 5 5 5 4 3 2 -0 -3 -4
-3 -3 -3 -2 -2 -1 -0 -1 -1 -1 -1 -1 -1 -1 -0 0 1 2 1 2 2 4 3 3 3 3 3 1 -1 -2 -3 0 2 4 3 8 -2 -6 -7 -8 -8 -9 -8 -8 -6 -6 -6 -4 -4 -3 -3 -2 -0 0 0 0 -3 -3 -3 -2 -1 -2 -1 -0 4 6 8 8 9 10 11 11 11 11 11 10 9 7 3 1 -2 -1 -3 -5 -4
-4 -4 -3 -2 -2 -1 -1 -1 -2 -2 -1 -2 -2 -1 -0 -0 0 1 1 2 1 1 1 1 0 2 0 -3 -3 -5 -5 -3 -0 2 2 2 -2 -8 -10 -11 -11 -10 -9 -8 -7 -7 -7 -5 -4 -5 -4 -4 -2 -1 0 -0 -3 -3 -3 -2 -2 -0 -1 -3 -5 -2 5 6 6 6 6 7 6 6 6 7 6 6 0 -2 -2 -2 -4 -4 -6
-5 -4 -3 -2 -1 -2 -1 -2 -2 -2 -2 -2 -2 -2 -1 -1 -0 1 1 2 -1 -2 -1 -1 -3 -1 -2 -5 -5 -7 -7 -6 -3 -0 -0 -0 -3 -9 -10 -13 -11 -10 -9 -9 -8 -7 -8 -7 -5 -5 -4 -3 -2 -1 -0 -0 -2 -2 -1 1 2 -1 -0 -4 -4 -2 -2 -2 -3 -1 1 2 1 -0 2 4 5 5 1 -0 -1 -3 -4 -4 -4
-5 -4 -3 -3 -2 -2 -2 -2 -2 -2 -2 -2 -2 -2 -1 -2 -2 -2 -1 -1 -5 -6 -4 -4 -7 -5 -4 -7 -9 -10 -9 -9 -7 -3 -2 -3 -4 -7 -10 -11 -11 -10 -10 -9 -10 -10 -9 -9 -7 -5 -4 -2 -1 0 1 2 0 1 3 3 2 1 3 -2 -1 -1 -1 -3 -3 -3 -2 -2 -2 -3 -4 -4 -2 -0 1 -1 -1 -2 -4 -4 -5
-5 -5 -4 -3 -3 -2 -2 -2 -3 -3 -3 -2 -4 -4 -4 -4 -5 -5 -5 -5 -9 -9 -9 -8 -9 -8 -7 -9 -10 -11 -10 -10 -8 -5 -4 -4 -5 -6 -8 -9 -9 -9 -10 -10 -11 -11 -10 -9 -8 -6 -4 -2 -0 1 2 2 2 3 2 2 3 3 3 -3 -1 5 -0 -0 -1 -2 -4 -4 -4 -4 -3 -3 -2 -2 -1 1 -1 -1 -3 -6 -7
-6 -5 -4 -4 -3 -3 -3 -3 -4 -5 -6 -5 -8 -8 -7 -8 -9 -10 -9 -11 -13 -14 -14 -11 -13 -13 -11 -11 -12 -13 -11 -9 -10 -7 -6 -6 -6 -6 -8 -8 -8 -9 -11 -12 -12 -11 -10 -9 -8 -6 -3 -2 -1 1 3 4 4 3 3 4 3 3 1 -0 -4 -5 -3 -2 -2 -2 -4 -4 -5 -3 -3 -2 -2 -2 -3 -3 -1 -2 -2 -2 -4
-6 -5 -4 -5 -5 -6 -7 -7 -8 -9 -9 -9 -12 -12 -11 -11 -13 -12 -13 -15 -16 -17 -16 -15 -15 -15 -15 -15 -16 -16 -16 -13 -10 -9 -7 -7 -7 -6 -7 -8 -7 -8 -10 -12 -12 -11 -9 -9 -7 -5 -4 -3 -1 -0 0 1 2 3 4 4 3 1 -0 -6 -4 -7 -5 -4 -4 -5 -5 -5 -5 -4 -3 -4 -3 -2 -3 -4 -4 -3 -3 -2 -2
-6 -5 -6 -7 -9 -10 -11 -10 -12 -12 -12 -12 -12 -14 -13 -14 -13 -15 -15 -16 -18 -17 -16 -17 -18 -18 -17 -15 -15 -15 -15 -15 -13 -10 -9 -8 -8 -7 -7 -7 -7 -8 -9 -12 -11 -10 -10 -9 -7 -5 -5 -3 -3 -2 -2 -1 -2 0 1 1 2 0 -7 -6 -10 -11 -8 -8 -8 -8 -6 -5 -6 -7 -6 -6 -5 -5 -5 -5 -5 -6 -7 -6 -5
-8 -9 -11 -12 -12 -13 -14 -14 -14 -15 -15 -15 -15 -13 -15 -15 -15 -15 -17 -18 -20 -20 -18 -17 -17 -18 -18 -17 -17 -16 -16 -16 -17 -12 -9 -9 -9 -8 -8 -8 -8 -7 -9 -10 -9 -9 -8 -8 -7 -7 -6 -6 -5 -5 -5 -4 -3 -3 -2 -1 -1 -6 -6 -10 -11 -12 -10 -11 -11 -11 -10 -6 -7 -6 -6 -8 -6 -6 -7 -8 -8 -8 -8 -8 -8
-12 -13 -15 -14 -16 -16 -18 -17 -16 -16 -17 -16 -16 -17 -18 -16 -16 -14 -18 -19 -20 -18 -17 -16 -16 -18 -19 -20 -18 -18 -17 -17 -16 -16 -10 -10 -9 -9 -8 -8 -8 -7 -7 -8 -8 -9 -9 -9 -8 -8 -8 -7 -7 -8 -7 -7 -5 -5 -5 -4 -6 -5 -6 -6 -10 -11 -13 -12 -11 -11 -11 -9 -8 -7 -7 -8 -7 -7 -7 -8 -8 -9 -11 -11 -9
-16 -17 -18 -17 -18 -18 -18 -15 -15 -17 -18 -17 -17 -18 -17 -19 -18 -16 -18 -20 -20 -16 -17 -14 -17 -18 -19 -18 -18 -17 -17 -17 -16 -15 -12 -12 -12 -10 -10 -10 -9 -8 -9 -10 -10 -12 -11 -10 -10 -9 -10 -9 -9 -9 -9 -8 -8 -9 -8 -8 -8 -6 -5 -5 -7 -10 -11 -12 -11 -12 -10 -10 -10 -7 -8 -8 -8 -7 -7 -8 -10 -11 -11 -12 -14
-20 -22 -20 -20 -18 -18 -18 -13 -15 -20 -18 -18 -18 -18 -19 -19 -19 -18 -18 -16 -15 -15 -15 -14 -14 -16 -18 -17 -18 -17 -17 -16 -13 -12 -12 -11 -11 -10 -11 -11 -12 -11 -11 -12 -14 -13 -14 -12 -12 -14 -13 -13 -13 -13 -13 -12 -11 -10 -10 -9 -9 -8 -6 -5 -5 -8 -11 -13 -14 -14 -12 -10 -9 -9 -9 -10 -9 -9 -8 -10 -13 -12 -14 -15 -15
-21 -24 -22 -21 -20 -16 -18 -19 -20 -19 -19 -19 -21 -22 -19 -16 -15 -15 -18 -16 -14 -12 -14 -12 -13 -17 -20 -18 -17 -16 -14 -14 -13 -10 -9 -9 -10 -11 -12 -12 -11 -11 -11 -11 -13 -16 -17 -17 -16 -15 -15 -15 -15 -15 -14 -14 -13 -12 -13 -11 -11 -10 -10 -9 -10 -10 -10 -12 -11 -13 -13 -14 -11 -10 -10 -10 -10 -10 -9 -10 -12 -13 -14 -16 -16
-23 -23 -21 -22 -20 -18 -19 -21 -22 -19 -20 -21 -19 -18 -14 -12 -11 -15 -15 -9 -8 -8 -9 -12 -12 -16 -17 -16 -18 -16 -15 -13 -10 -9 -9 -10 -10 -10 -11 -10 -10 -11 -12 -13 -14 -21 -20 -20 -19 -18 -17 -18 -17 -16 -16 -16 -15 -15 -14 -11 -12 -12 -11 -10 -10 -10 -10 -12 -13 -13 -13 -14 -13 -12 -12 -11 -11 -11 -11 -10 -13 -13 -14 -14 -14
-24 -24 -21 -22 -17 -17 -20 -21 -20 -23 -21 -21 -21 -20 -19 -17 -13 -11 -11 -11 -10 -9 -9 -10 -9 -9 -9 -15 -13 -11 -11 -11 -10 -10 -11 -11 -11 -11 -11 -11 -11 -12 -12 -14 -19 -20 -21 -21 -20 -19 -18 -18 -17 -17 -16 -17 -16 -16 -16 -15 -14 -13 -12 -12 -11 -10 -11 -13 -12 -14 -14 -15 -15 -14 -12 -13 -13 -13 -13 -13 -14 -13 -14 -14 -15
-26 -24 -25 -22 -18 -18 -23 -24 -22 -22 -21 -23 -21 -20 -21 -20 -19 -15 -13 -12 -11 -10 -11 -11 -11 -10 -10 -10 -12 -16 -11 -11 -11 -11 -11 -11 -12 -12 -12 -12 -12 -13 -14 -15 -20 -21 -22 -22 -21 -20 -19 -19 -18 -17 -17 -18 -17 -17 -17 -16 -16 -14 -14 -13 -11 -11 -13 -14 -14 -13 -13 -14 -16 -15 -14 -14 -13 -13 -14 -13 -13 -14 -14 -16 -16
-26 -25 -24 -21 -23 -21 -21 -23 -22 -24 -24 -23 -21 -21 -21 -21 -21 -19 -17 -14 -13 -13 -13 -13 -12 -12 -11 -11 -11 -11 -12 -12 -12 -12 -12 -12 -13 -13 -13 -13 -13 -13 -15 -19 -22 -22 -22 -22 -22 -21 -20 -20 -20 -19 -19 -18 -18 -18 -18 -18 -18 -16 -15 -14 -12 -13 -13 -12 -16 -15 -16 -16 -16 -15 -15 -15 -14 -15 -14 -14 -14 -15 -16 -16 -16
-29 -25 -23 -21 -23 -24 -24 -26 -25 -24 -25 -25 -24 -21 -21 -22 -21 -21 -20 -18 -18 -17 -15 -14 -14 -13 -12 -12 -12 -11 -12 -12 -13 -13 -13 -13 -13 -14 -15 -16 -15 -15 -15 -21 -22 -23 -22 -22 -21 -21 -20 -19 -19 -19 -19 -19 -18 -18 -18 -18 -18 -17 -16 -15 -15 -15 -15 -15 -16 -16 -17 -18 -17 -16 -16 -15 -15 -15 -15 -15 -15 -16 -17 -17 -18
-28 -21 -18 -18 -25 -26 -27 -26 -26 -25 -24 -24 -23 -22 -22 -22 -21 -20 -20 -20 -20 -19 -19 -18 -16 -14 -14 -13 -12 -12 -12 -13 -13 -13 -13 -13 -14 -15 -17 -20 -21 -20 -20 -22 -20 -23 -21 -21 -21 -20 -20 -20 -19 -19 -19 -20 -19 -19 -18 -18 -19 -18 -17 -16 -16 -17 -18 -18 -18 -18 -19 -18 -17 -16 -17 -17 -16 -16 -16 -16 -16 -17 -18 -18 -18
-27 -26 -28 -24 -24 -25 -26 -26 -26 -25 -26 -22 -22 -22 -21 -22 -22 -22 -22 -22 -22 -21 -20 -20 -20 -15 -15 -15 -14 -13 -13 -14 -14 -14 -14 -14 -15 -17 -21 -22 -23 -22 -21 -21 -22 -20 -20 -20 -20 -21 -20 -20 -20 -20 -19 -19 -19 -19 -18 -18 -19 -19 -18 -17 -17 -19 -20 -21 -20 -19 -18 -19 -18 -18 -17 -16 -17 -17 -17 -17 -17 -17 -17 -18 -18
-27 -25 -26 -25 -25 -26 -25 -26 -26 -23 -17 -20 -23 -25 -24 -23 -22 -23 -24 -24 -22 -23 -24 -21 -19 -19 -17 -18 -15 -15 -14 -15 -15 -15 -16 -16 -16 -19 -26 -25 -25 -24 -21 -22 -20 -20 -21 -21 -20 -21 -21 -20 -20 -20 -20 -20 -19 -19 -17 -18 -19 -19 -18 -18 -18 -20 -22 -22 -22 -22 -22 -20 -19 -18 -18 -18 -17 -17 -17 -17 -18 -17 -17 -18 -18
-28 -24 -24 -22 -23 -24 -25 -22 -22 -18 -21 -23 -24 -26 -24 -24 -23 -23 -22 -22 -20 -22 -22 -22 -19 -21 -21 -20 -16 -17 -16 -17 -18 -18 -18 -18 -19 -22 -24 -24 -24 -23 -22 -22 -20 -21 -21 -20 -20 -20 -20 -20 -20 -19 -19 -19 -19 -19 -19 -19 -18 -19 -15 -18 -19 -23 -22 -23 -23 -22 -21 -20 -20 -19 -18 -19 -18 -18 -18 -18 -19 -19 -19 -19 -21
-25 -20 -19 -18 -18 -21 -23 -22 -21 -21 -23 -23 -24 -23 -22 -21 -23 -23 -24 -24 -25 -23 -24 -25 -24 -22 -21 -20 -19 -17 -19 -21 -22 -22 -22 -22 -22 -25 -26 -25 -24 -23 -23 -22 -21 -21 -21 -21 -19 -18 -18 -19 -18 -19 -19 -19 -19 -19 -19 -19 -19 -20 -20 -21 -22 -23 -23 -24 -23 -23 -22 -21 -20 -19 -19 -19 -19 -19 -19 -20 -20 -21 -21 -20 -19
-23 -23 -21 -19 -21 -20 -22 -22 -22 -24 -23 -22 -22 -23 -24 -23 -23 -22 -23 -25 -23 -24 -25 -24 -23 -23 -22 -21 -18 -18 -22 -23 -24 -24 -23 -23 -23 -23 -25 -24 -23 -23 -23 -23 -22 -21 -21 -20 -19 -19 -19 -19 -18 -18 -18 -18 -18 -18 -19 -19 -19 -19 -20 -21 -22 -23 -24 -23 -23 -23 -22 -21 -20 -19 -20 -20 -19 -19 -20 -21 -20 -20 -20 -20 -19
-25 -24 -21 -20 -19 -20 -23 -23 -24 -24 -24 -24 -24 -25 -25 -23 -22 -22 -24 -24 -24 -25 -24 -25 -25 -24 -22 -17 -15 -16 -26 -26 -24 -24 -24 -23 -23 -24 -23 -23 -22 -23 -22 -22 -21 -21 -20 -20 -19 -19 -19 -18 -18 -18 -18 -18 -19 -19 -19 -19 -19 -19 -20 -21 -22 -22 -22 -23 -23 -23 -22 -22 -21 -20 -21 -20 -17 -19 -21 -20 -20 -20 -19 -19 -18
-25 -23 -22 -21 -21 -23 -23 -22 -23 -21 -23 -23 -24 -23 -23 -22 -22 -24 -24 -24 -24 -24 -23 -24 -26 -25 -20 -18 -17 -17 -22 -27 -26 -24 -24 -24 -24 -24 -23 -23 -23 -23 -22 -21 -21 -20 -20 -19 -19 -19 -19 -18 -18 -18 -18 -19 -19 -20 -20 -20 -20 -20 -21 -21 -21 -22 -23 -23 -24 -23 -23 -22 -20 -20 -20 -18 -21 -21 -21 -21 -21 -20 -18 -17 -17
-25 -24 -24 -23 -22 -23 -23 -22 -23 -23 -23 -23 -23 -21 -21 -22 -24 -25 -25 -24 -25 -25 -25 -24 -23 -23 -22 -19 -19 -20 -26 -28 -23 -25 -26 -24 -24 -24 -24 -23 -22 -22 -21 -21 -20 -19 -19 -19 -19 -19 -19 -19 -18 -18 -19 -19 -19 -20 -20 -21 -21 -21 -22 -21 -22 -23 -23 -24 -25 -24 -24 -23 -22 -22 -22 -22 -22 -22 -22 -21 -19 -18 -18 -17 -17
-25 -23 -22 -22 -22 -23 -24 -25 -25 -24 -25 -22 -22 -23 -23 -24 -25 -26 -26 -26 -24 -25 -25 -25 -25 -24 -24 -23 -22 -25 -25 -26 -26 -26 -25 -24 -24 -24 -24 -23 -23 -22 -21 -20 -20 -20 -20 -20 -19 -19 -19 -19 -19 -20 -19 -19 -19 -20 -20 -21 -21 -20 -22 -23 -23 -24 -24 -25 -25 -24 -25 -24 -23 -24 -23 -22 -22 -21 -20 -19 -18 -18 -18 -17 -17
-24 -22 -22 -22 -22 -24 -22 -25 -25 -24 -23 -23 -26 -24 -24 -26 -25 -24 -26 -24 -25 -25 -26 -26 -26 -26 -26 -25 -25 -25 -25 -26 -25 -25 -24 -25 -25 -25 -24 -24 -23 -23 -22 -21 -20 -20 -20 -20 -19 -19 -19 -19 -19 -20 -20 -19 -20 -20 -20 -22 -23 -22 -22 -23 -24 -24 -24 -26 -25 -25 -25 -25 -25 -25 -23 -22 -21 -20 -19 -19 -18 -18 -18 -18 -17
-23 -22 -22 -22 -22 -22 -22 -24 -23 -25 -25 -25 -24 -24 -24 -26 -27 -27 -26 -26 -24 -25 -25 -26 -27 -27 -26 -27 -25 -26 -25 -27 -26 -26 -25 -25 -25 -25 -24 -24 -23 -24 -23 -22 -21 -21 -20 -20 -20 -20 -20 -20 -20 -20 -19 -20 -19 -19 -20 -22 -22 -21 -21 -22 -24 -25 -25 -26 -26 -25 -25 -25 -24 -23 -22 -21 -20 -20 -19 -19 -18 -18 -18 -18 -17
-25 -23 -23 -23 -23 -23 -24 -24 -25 -24 -26 -24 -26 -25 -25 -25 -26 -24 -25 -24 -24 -26 -27 -27 -27 -27 -26 -27 -26 -26 -25 -25 -26 -25 -26 -26 -26 -26 -25 -24 -24 -23 -23 -23 -22 -22 -22 -21 -21 -21 -21 -21 -21 -21 -20 -20 -20 -19 -20 -21 -22 -21 -22 -23 -23 -24 -24 -23 -23 -24 -24 -24 -24 -23 -22 -21 -21 -20 -20 -19 -18 -18 -18 -17 -17
-24 -23 -23 -23 -24 -25 -25 -26 -24 -23 -25 -25 -26 -26 -25 -25 -27 -26 -27 -26 -26 -28 -28 -27 -27 -28 -26 -27 -26 -26 -26 -26 -27 -26 -26 -26 -26 -25 -25 -25 -24 -24 -24 -24 -24 -23 -23 -23 -23 -23 -22 -22 -22 -22 -21 -21 -21 -21 -22 -23 -22 -21 -20 -20 -22 -21 -21 -20 -21 -21 -22 -23 -23 -23 -23 -22 -22 -21 -20 -20 -18 -18 -17 -17 -17
-25 -25 -24 -24 -24 -25 -26 -25 -25 -26 -26 -26 -27 -27 -26 -27 -27 -28 -27 -28 -28 -29 -30 -29 -28 -27 -28 -27 -27 -26 -26 -25 -26 -27 -26 -26 -26 -25 -25 -25 -24 -25 -25 -25 -25 -25 -24 -24 -23 -23 -24 -24 -23 -22 -22 -21 -20 -21 -22 -22 -19 -19 -19 -19 -19 -19 -19 -19 -20 -21 -21 -22 -23 -23 -22 -22 -21 -21 -20 -19 -18 -18 -18 -18 -17
-27 -26 -26 -25 -25 -26 -26 -27 -28 -29 -28 -28 -28 -28 -27 -27 -28 -28 -27 -27 -29 -29 -30 -29 -28 -28 -28 -27 -26 -26 -26 -27 -27 -26 -26 -26 -26 -26 -25 -26 -26 -26 -26 -26 -25 -25 -25 -25 -25 -24 -24 -24 -23 -23 -22 -21 -21 -20 -20 -18 -17 -18 -18 -18 -18 -18 -19 -20 -20 -20 -21 -22 -22 -23 -22 -22 -21 -20 -20 -19 -18 -18 -18 -18 -18
-26 -26 -26 -26 -26 -27 -28 -28 -28 -29 -29 -28 -29 -29 -28 -28 -29 -29 -30 -29 -29 -28 -28 -29 -29 -29 -29 -30 -28 -27 -27 -28 -26 -27 -27 -27 -26 -26 -26 -26 -27 -27 -27 -27 -26 -26 -26 -26 -25 -24 -24 -22 -22 -21 -21 -20 -20 -18 -16 -16 -17 -17 -17 -17 -17 -18 -19 -19 -20 -20 -21 -22 -23 -23 -22 -22 -21 -21 -20 -19 -18 -18 -18 -17 -17